Regional Weather Roundup
Issued by NWS

Home | Current Version | Previous Version | Graphics & Text | Print | Product List | Glossary On
Versions: 1 2 3 4 5 6 7 8 9 10 11 12 13 14 15 16 17 18 19 20 21 22 23 24 25 26 27 28 29 30 31 32 33 34 35 36 37 38 39 40 41 42 43 44 45 46 47 48 49 50
000
ASUS43 KMPX 282110
RWRMN
WEATHER ROUNDUP FOR MINNESOTA
NATIONAL WEATHER SERVICE TWIN CITIES/CHANHASSEN MN
400 PM CDT WED JUN 28 2017


NOTE: "FAIR" INDICATES FEW OR NO CLOUDS BELOW 12,000 FEET WITH NO
SIGNIFICANT WEATHER AND/OR OBSTRUCTIONS TO VISIBILITY. N/A MEANS
CURRENT SKY AND/OR WEATHER CONDITIONS ARE NOT AVAILABLE.

MNZ060>063-068>070-282200-
   Twin Cities Metro

CITY           SKY/WX    TMP DP  RH WIND       PRES   REMARKS
TWIN CITIES    PTSUNNY   82  64  54 W20G29    29.50F
ST PAUL        PTSUNNY   80  67  64 W17G30    29.50F
CRYSTAL        CLOUDY    78  62  57 W15G24    29.50R
BLAINE         CLOUDY    73  70  88 W9G16     29.52R
LAKEVILLE      CLOUDY    81  64  57 SW13G25   29.52S
EDEN PRAIRIE   PTSUNNY   82  66  58 W13G20    29.50S
SOUTH ST PAUL  MOSUNNY   77  69  76 W9G16     29.50S
LAKE ELMO      PTSUNNY   70  64  83 SW14G26   29.50F
$$
MNZ001>005-007-008-013>017-022>024-027-028-282200-
   Northwest Minnesota

CITY           SKY/WX    TMP DP  RH WIND       PRES   REMARKS
BEMIDJI        CLOUDY    61  58  90 E10       29.53R
HALLOCK        CLOUDY    64  63  94 E3        29.60R
ROSEAU         LGT RAIN  61  55  82 E9        29.59R
WARROAD        RAIN      61  55  82 E9        29.60S
THIEF RVR FALL RAIN      59  57  94 NE9       29.58R
CROOKSTON      RAIN      61  61 100 N6        29.58R
FOSSTON        RAIN      61  59  94 N8        29.55R
DETROIT LAKES  CLOUDY    64  61  88 NW14      29.53R
MOORHEAD       CLOUDY    66  61  82 NW21G28   29.55R
PARK RAPIDS    CLOUDY    65  60  84 E6        29.50S
MAHNOMEN       CLOUDY    63  62  96 N6        29.52R
$$
MNZ006-009>011-018-025>026-282200-
   North Central Minnesota

CITY           SKY/WX    TMP DP  RH WIND       PRES   REMARKS
BAUDETTE       LGT RAIN  62  61  96 NE5       29.58R
FLAG ISLAND    LGT RAIN  61  57  88 NE7       29.59S
INTL FALLS     LGT RAIN  63  59  87 E8        29.58F
WASKISH        CLOUDY    66  61  82 NE8       29.55R
BIG FORK       CLOUDY    63  57  82 E7G16     29.55S
LONGVILLE      CLOUDY    63  61  94 CALM      29.52S
GRAND RAPIDS   LGT RAIN  59  57  93 VRB5      29.55F
CRANE LAKE     LGT RAIN  59  57  94 CALM      29.62S
ORR            DRIZZLE   59  55  88 E3        29.56F
COOK           DRIZZLE   59  57  94 E3        29.58F
WALKER         CLOUDY    61  58  90 E6        29.52S
$$
MNZ012-019>021-037-282200-
   Northeast Minnesota

CITY           SKY/WX    TMP DP  RH WIND       PRES   REMARKS
DULUTH         LGT RAIN  56  56 100 E10       29.57F
ELY            LGT RAIN  57  55  94 E8        29.61F
HIBBING        LGT RAIN  58  58 100 E8        29.56S FOG
EVELETH        RAIN      58  55  90 E8        29.58F
DULUTH HARBOR  LGT RAIN  50  48  93 NE23G30   29.57S
TWO HARBORS    LGT RAIN  59  54  82 NE9G16    29.57F
SILVER BAY     LGT RAIN  55  54  94 NE8       29.60S
GRAND MARAIS     N/A     53  50  89 NE12      29.66R
G MARAIS ARPRT RAIN      55  52  88 E5        29.68S
$$
MNZ029>031-032-039>041-046>048-054>057-064-282200-
   West Central Minnesota

CITY           SKY/WX    TMP DP  RH WIND       PRES   REMARKS
FERGUS FALLS   CLOUDY    70  61  73 NW23      29.52R
WHEATON        PTSUNNY   75  63  64 W15G23    29.57R
MORRIS         PTSUNNY   75  61  60 NW16G25   29.55R
ALEXANDRIA     CLOUDY    71  62  73 W17G25    29.55R
ELBOW LAKE     CLOUDY    70  63  79 NW18G25   29.55R
WADENA         DRIZZLE   64  63  94 W9        29.51R
GLENWOOD       MOSUNNY   73  63  68 W23G29    29.55R
APPLETON       MOSUNNY   79  61  53 NW18      29.56R
BENSON         PTSUNNY   77  63  61 N17G26    29.57R
MADISON        CLOUDY    82  63  51 NW16G25   29.57R
WILLMAR        FAIR      75  64  69 W15G21    29.57R
$$
MNZ033>034-036-042>043-049>051-058-059-282200-
   Central Minnesota

CITY           SKY/WX    TMP DP  RH WIND       PRES   REMARKS
ST CLOUD       CLOUDY    70  65  84 SW10      29.52R
SAUK CENTRE    CLOUDY    71  64  76 W10G24    29.53R
PAYNESVILLE    PTSUNNY   75  64  68 W17       29.55R
AITKIN         CLOUDY    66  64  94 SE5       29.48F FOG
PINE RIVER     DRIZZLE   63  63 100 MISG      29.55S
BRAINERD       LGT RAIN  66  65  96 SW8       29.49S FOG
STAPLES        CLOUDY    66  64  94 W7        29.50S
LONG PRAIRIE   CLOUDY    70  63  78 SW13      29.53R
LITTLE FALLS   CLOUDY    64  63  94 SW5       29.50S FOG
LITCHFIELD     MOSUNNY   79  66  65 W12G20    29.55R
BUFFALO        CLOUDY    76  64  65 W9G17     29.53R
MAPLE LAKE     CLOUDY    75  66  73 W13G24    29.54R
HUTCHINSON     CLOUDY    81  68  66 W16       29.54S
$$
MNZ037-044-045-052-053-282200-
   East Central Minnesota

CITY           SKY/WX    TMP DP  RH WIND       PRES   REMARKS
PRINCETON      CLOUDY    73  66  78 SW10      29.52R
MORA           CLOUDY    68  66  94 S13       29.52S
CAMBRIDGE      CLOUDY    73  66  78 CALM      29.49S
RUSH CITY      CLOUDY    70  66  88 W5        29.51S THUNDER
MOOSE LAKE     RAIN      55  54  94 NE7       29.51F
HINCKLEY       LGT RAIN  68  68 100 SE3       29.51F
CLOQUET        DRIZZLE   55  54  94 E8        29.56S
MCGREGOR       CLOUDY    63  61  94 E8        29.51F
$$
MNZ071>073-080-081-089-090-097-098-282200-
   Southwest Minnesota

CITY           SKY/WX    TMP DP  RH WIND       PRES   REMARKS
MONTEVIDEO     CLOUDY    81  63  54 N15G26    29.56R
GRANITE FALLS  SUNNY     82  64  53 W15G29    29.57R
CANBY          MOSUNNY   85  61  43 NW17G23   29.58S
MARSHALL       SUNNY     84  63  49 W21       29.57R
REDWOOD FALLS  SUNNY     84  62  47 W20       29.54S
OLIVIA         MOSUNNY   79  63  57 NW16G25   29.54S
PIPESTONE      SUNNY     84  63  48 NW14G22   29.62S
WINDOM         SUNNY     82  66  57 W12G22    29.60S
WORTHINGTON    MOSUNNY   81  66  60 W15       29.63R
JACKSON        MOSUNNY   81  63  54 W16G23    29.62S
TRACY          SUNNY     82  68  62 W10G21    29.59S
SLAYTON        MOSUNNY   81  64  56 W17       29.62R HAZE
$$
MNZ065>067-074>077-082>085-091>093-282200-
   South Central Minnesota

CITY           SKY/WX    TMP DP  RH WIND       PRES   REMARKS
MANKATO        MOSUNNY   83  66  56 W21G26    29.56S
NEW ULM        MOSUNNY   82  64  54 W20G25    29.55S
ST JAMES       MOSUNNY   84  64  51 SW16      29.58S
FAIRMONT       PTSUNNY   83  67  58 W15G22    29.60S
GLENCOE        CLOUDY    81  70  68 W9G22     29.53R
FARIBAULT      MOSUNNY   82  66  57 SW22G28   29.55S
OWATONNA       MOSUNNY   81  70  69 S23G32    29.57F
WASECA         PTSUNNY   79  68  69 SW15G22   29.58F
ALBERT LEA     CLOUDY    79  66  65 SW14G20   29.61F
$$
MNZ078>079-086>088-094>096-282200-
   Southeast Minnesota

CITY           SKY/WX    TMP DP  RH WIND       PRES   REMARKS
ROCHESTER      CLOUDY    76  68  76 SW20G30   29.61F
RED WING       MOSUNNY   79  66  65 S10       29.51F
STANTON        CLOUDY    83  65  54 SW23G32   29.51F
DODGE CENTER   MOSUNNY   75  66  73 S21G29    29.59F
WINONA         CLOUDY    73  64  73 SW9       29.61S
AUSTIN         CLOUDY    77  66  69 SW10      29.60F
PRESTON        PTSUNNY   70  64  82 SW13      29.62F
$$
ABBREVIATIONS USED IN REMARKS
   TC - TEMPERATURES IN CELSIUS
  WCI - WIND CHILL INDEX
   HX - HEAT INDEX
  VSB - VISIBILITY
$$



USA.gov is the U.S. government's official web portal to all federal, state and local government web resources and services.